Location: Unspecified
(0.0000°N, 0.0000°E)
Time: 02:30:06
(UTC+00:00)

N. Korean satellite - Pass Details

Date: 24 September 2022
Orbit: 427 x 468 km, 97.3° (Epoch: 25 September)

Event Time Altitude Azimuth Distance (km) Brightness Sun altitude
Rises 04:33:16 0° 23° (NNE) 2,376 10.4 -19.7°
Reaches altitude 10° 04:35:21 10° 31° (NNE) 1,514 9.4 -19.2°
Maximum altitude 04:38:23 38° 101° (E) 663 7.8 -18.4°
Drops below altitude 10° 04:41:27 10° 171° (S) 1,530 9.2 -17.7°
Sets 04:43:33 0° 179° (S) 2,404 10.1 -17.1°
